Social login voor leden:
METAR EBOS 210250Z 18012KT 9999 SCT042 12/08 Q1007 TEMPO 18015G25KT 3500 RA
TAF EBOS 201714Z 2018/2124 20010KT SCT020 SCT040 TEMPO 2103/2106 18015G25KT 2500 RA SHRA BKN010 BKN020TCU PROB40 TEMPO 2106/2108 BKN008 BECMG 2109/2111 21020G30KT TEMPO 2111/2120 3500 SHRA TEMPO 2120/2124 21025G40KT 2000 TSRA BKN010 BKN020CB

NZVC is de eerste Belgische vliegclub met een erkenning als 'Approved Training Organisation (ATO)'

Sinds 3 maart 2015 is de Noordzee Vliegclub Oostende erkend door de Europese Unie en de Belgian Civil Aviation Authority als Approved Training Organisation (ATO). Hierbij zijn we de eerste vliegclub in België die voldoet aan de nieuwste en strengste Europese normen inzake organisatie, kwaliteit en veiligheid bij de opleiding tot Privaat Piloot (PPL).

 

Opleiding Piloot
Meevliegen
Visit Us
Agenda
Opleiding Piloot
Doopvluchten
Visit Us
Volgende activiteit
Noordzee Vliegclub - Nieuwpoortsesteenweg 947 8400 Oostende - Tel 059 30 04 79 - Dit e-mailadres wordt beveiligd tegen spambots. JavaScript dient ingeschakeld te zijn om het te bekijken.

 - Copyright 2017 ©